• In Uzbekistan
  • List of Countries
  • For 7 days
  • Water Temperature
  • Satellite Maps
  • Weather Map
  • Weather Widgets
  • user-avatar
    Login

    Hourly Weather Elbasan

    Today, 27 February, Monday

    Time Temperature Precipitation Wind Pressure Humidity
    00:00 +10°C° 0 mm 1 mps 737 mmHg 92%
    01:00 +9°C° 0 mm 1 mps 737 mmHg 91%
    02:00 +9°C° 0 mm 1 mps 737 mmHg 90%
    03:00 +8°C° 0 mm 2 mps 736 mmHg 89%
    04:00 +8°C° 0 mm 2 mps 736 mmHg 88%
    05:00 +8°C° 0 mm 2 mps 736 mmHg 88%
    06:00 +8°C° 0 mm 2 mps 736 mmHg 87%
    07:00 +8°C° 0 mm 2 mps 736 mmHg 86%
    08:00 +12°C° 0 mm 1 mps 736 mmHg 79%
    09:00 +14°C° 0 mm 1 mps 736 mmHg 71%
    10:00 +16°C° 0 mm 0 mps 736 mmHg 64%
    11:00 +18°C° 0 mm 1 mps 736 mmHg 61%
    12:00 +19°C° 0 mm 1 mps 736 mmHg 58%
    13:00 +20°C° 0 mm 1 mps 736 mmHg 56%
    14:00 +19°C° 0 mm 1 mps 736 mmHg 59%
    15:00 +19°C° 0 mm 1 mps 735 mmHg 63%
    16:00 +18°C° 0 mm 1 mps 735 mmHg 66%
    17:00 +15°C° 0 mm 1 mps 735 mmHg 74%
    18:00 +13°C° 0 mm 1 mps 735 mmHg 81%
    19:00 +10°C° 0 mm 0 mps 735 mmHg 88%
    20:00 +10°C° 0 mm 0 mps 735 mmHg 89%
    21:00 +9°C° 0 mm 0 mps 736 mmHg 90%
    22:00 +10°C° 0 mm 1 mps 736 mmHg 90%
    23:00 +9°C° 0 mm 1 mps 735 mmHg 90%

    Tomorrow, 28 February, Tuesday

    Time Temperature Precipitation Wind Pressure Humidity
    00:00 +9°C° 0 mm 1 mps 735 mmHg 90%
    01:00 +9°C° 0 mm 1 mps 735 mmHg 90%
    02:00 +8°C° 0 mm 1 mps 735 mmHg 90%
    03:00 +8°C° 0 mm 1 mps 735 mmHg 89%
    04:00 +8°C° 0 mm 1 mps 734 mmHg 89%
    05:00 +8°C° 0 mm 1 mps 735 mmHg 87%
    06:00 +9°C° 0 mm 1 mps 735 mmHg 85%
    07:00 +9°C° 0 mm 1 mps 735 mmHg 83%
    08:00 +11°C° 0 mm 1 mps 735 mmHg 75%
    09:00 +14°C° 0 mm 2 mps 735 mmHg 67%
    10:00 +16°C° 0 mm 2 mps 735 mmHg 60%
    11:00 +17°C° 0 mm 2 mps 735 mmHg 59%
    12:00 +17°C° 0 mm 2 mps 735 mmHg 58%
    13:00 +18°C° 0 mm 3 mps 734 mmHg 57%
    14:00 +17°C° 0 mm 3 mps 734 mmHg 60%
    15:00 +17°C° 0 mm 3 mps 734 mmHg 63%
    16:00 +16°C° 0 mm 2 mps 733 mmHg 67%
    17:00 +14°C° 0 mm 2 mps 734 mmHg 74%
    18:00 +12°C° 0 mm 2 mps 734 mmHg 81%
    19:00 +10°C° 0 mm 2 mps 734 mmHg 89%
    20:00 +9°C° 0 mm 2 mps 734 mmHg 90%
    21:00 +9°C° 0 mm 2 mps 734 mmHg 90%
    22:00 +9°C° 0 mm 2 mps 734 mmHg 91%
    23:00 +9°C° 0 mm 2 mps 734 mmHg 91%

    Day after tomorrow, 1 March, Wednesday

    Time Temperature Precipitation Wind Pressure Humidity
    00:00 +8°C° 0 mm 3 mps 734 mmHg 91%
    01:00 +8°C° 0 mm 3 mps 734 mmHg 90%
    02:00 +8°C° 0 mm 3 mps 733 mmHg 90%
    03:00 +8°C° 0 mm 3 mps 733 mmHg 90%
    04:00 +8°C° 0 mm 3 mps 733 mmHg 89%
    05:00 +8°C° 0 mm 3 mps 733 mmHg 89%
    06:00 +8°C° 0 mm 3 mps 733 mmHg 89%
    07:00 +8°C° 0 mm 3 mps 732 mmHg 89%
    08:00 +10°C° 0.1 mm 3 mps 732 mmHg 85%
    09:00 +11°C° 0.1 mm 4 mps 732 mmHg 80%
    10:00 +13°C° 0.1 mm 4 mps 732 mmHg 76%
    11:00 +13°C° 0.5 mm 4 mps 732 mmHg 75%
    12:00 +13°C° 0.5 mm 5 mps 731 mmHg 74%
    13:00 +14°C° 0.5 mm 5 mps 730 mmHg 74%
    14:00 +13°C° 2.6 mm 5 mps 730 mmHg 79%
    15:00 +12°C° 2.6 mm 4 mps 730 mmHg 84%
    16:00 +11°C° 2.6 mm 4 mps 730 mmHg 89%
    17:00 +10°C° 2.8 mm 3 mps 730 mmHg 91%
    18:00 +9°C° 2.8 mm 3 mps 731 mmHg 93%
    19:00 +9°C° 2.8 mm 2 mps 731 mmHg 95%
    20:00 +8°C° 0.1 mm 2 mps 732 mmHg 94%
    21:00 +7°C° 0.1 mm 2 mps 732 mmHg 94%
    22:00 +7°C° 0.1 mm 2 mps 733 mmHg 94%
    23:00 +7°C° 0 mm 2 mps 733 mmHg 93%

    2 March, Thursday

    Time Temperature Precipitation Wind Pressure Humidity
    00:00 +6°C° 0 mm 2 mps 733 mmHg 93%
    01:00 +6°C° 0 mm 2 mps 734 mmHg 93%
    02:00 +6°C° 0 mm 2 mps 734 mmHg 93%
    03:00 +5°C° 0 mm 2 mps 734 mmHg 93%
    04:00 +5°C° 0 mm 2 mps 735 mmHg 93%
    05:00 +6°C° 0 mm 1 mps 735 mmHg 91%
    06:00 +6°C° 0 mm 1 mps 736 mmHg 90%
    07:00 +6°C° 0 mm 1 mps 736 mmHg 89%
    08:00 +8°C° 0 mm 1 mps 736 mmHg 80%
    09:00 +10°C° 0 mm 1 mps 737 mmHg 71%
    10:00 +12°C° 0 mm 1 mps 737 mmHg 62%
    11:00 +13°C° 0 mm 1 mps 737 mmHg 58%
    12:00 +13°C° 0 mm 1 mps 737 mmHg 54%
    13:00 +14°C° 0 mm 2 mps 737 mmHg 50%
    14:00 +14°C° 0 mm 2 mps 737 mmHg 53%
    15:00 +13°C° 0 mm 2 mps 737 mmHg 56%
    16:00 +13°C° 0 mm 2 mps 737 mmHg 60%
    17:00 +10°C° 0 mm 2 mps 737 mmHg 67%
    18:00 +9°C° 0 mm 1 mps 737 mmHg 75%
    19:00 +7°C° 0 mm 1 mps 737 mmHg 82%
    20:00 +7°C° 0 mm 1 mps 738 mmHg 81%
    21:00 +7°C° 0 mm 1 mps 738 mmHg 79%
    22:00 +7°C° 0 mm 1 mps 738 mmHg 78%
    23:00 +7°C° 0 mm 1 mps 738 mmHg 76%

    3 March, Friday

    Time Temperature Precipitation Wind Pressure Humidity
    00:00 +7°C° 0 mm 1 mps 738 mmHg 74%
    01:00 +7°C° 0 mm 1 mps 738 mmHg 72%
    02:00 +7°C° 0 mm 1 mps 737 mmHg 69%
    03:00 +7°C° 0 mm 1 mps 737 mmHg 67%
    04:00 +7°C° 0 mm 1 mps 737 mmHg 65%
    05:00 +7°C° 0 mm 1 mps 737 mmHg 64%
    06:00 +7°C° 0 mm 1 mps 738 mmHg 62%
    07:00 +8°C° 0 mm 1 mps 738 mmHg 61%
    08:00 +10°C° 0 mm 1 mps 738 mmHg 55%
    09:00 +13°C° 0 mm 1 mps 738 mmHg 49%
    10:00 +16°C° 0 mm 1 mps 738 mmHg 44%
    11:00 +16°C° 0 mm 1 mps 738 mmHg 43%
    12:00 +18°C° 0 mm 1 mps 738 mmHg 42%
    13:00 +19°C° 0 mm 1 mps 738 mmHg 41%
    14:00 +18°C° 0 mm 1 mps 738 mmHg 47%
    15:00 +18°C° 0 mm 1 mps 737 mmHg 52%
    16:00 +16°C° 0 mm 1 mps 737 mmHg 58%
    17:00 +14°C° 0 mm 1 mps 737 mmHg 66%
    18:00 +11°C° 0 mm 1 mps 738 mmHg 74%
    19:00 +9°C° 0 mm 1 mps 738 mmHg 83%
    20:00 +9°C° 0 mm 1 mps 738 mmHg 83%
    21:00 +9°C° 0 mm 1 mps 738 mmHg 83%
    22:00 +9°C° 0 mm 1 mps 738 mmHg 83%
    23:00 +8°C° 0 mm 1 mps 738 mmHg 84%

    4 March, Saturday

    Time Temperature Precipitation Wind Pressure Humidity
    00:00 +8°C° 0 mm 1 mps 738 mmHg 84%
    01:00 +8°C° 0 mm 1 mps 738 mmHg 85%
    02:00 +7°C° 0 mm 1 mps 738 mmHg 85%
    03:00 +7°C° 0 mm 1 mps 738 mmHg 86%
    04:00 +7°C° 0 mm 1 mps 738 mmHg 87%
    05:00 +7°C° 0 mm 1 mps 738 mmHg 85%
    06:00 +8°C° 0 mm 1 mps 738 mmHg 83%
    07:00 +8°C° 0 mm 1 mps 738 mmHg 81%
    08:00 +11°C° 0 mm 1 mps 738 mmHg 72%
    09:00 +13°C° 0 mm 1 mps 738 mmHg 63%
    10:00 +16°C° 0 mm 1 mps 738 mmHg 54%
    11:00 +16°C° 0 mm 1 mps 738 mmHg 51%
    12:00 +18°C° 0 mm 1 mps 738 mmHg 48%
    13:00 +18°C° 0 mm 2 mps 737 mmHg 46%
    14:00 +17°C° 0 mm 2 mps 737 mmHg 50%
    15:00 +17°C° 0 mm 2 mps 737 mmHg 54%
    16:00 +16°C° 0 mm 2 mps 737 mmHg 58%
    17:00 +14°C° 0 mm 1 mps 737 mmHg 67%
    18:00 +12°C° 0 mm 1 mps 737 mmHg 77%
    19:00 +10°C° 0 mm 1 mps 738 mmHg 86%
    20:00 +9°C° 0 mm 1 mps 738 mmHg 86%
    21:00 +9°C° 0 mm 1 mps 738 mmHg 87%
    22:00 +9°C° 0 mm 1 mps 738 mmHg 87%
    23:00 +9°C° 0 mm 1 mps 737 mmHg 87%
    Show more